Location: Bad Salzschlirf
(50.3750°N, 9.3000°E)
Time: 07:34:34
(UTC+01:00)

ISS - Pass Details

Date: 16 December 2018
Orbit: 401 x 408 km, 51.6° (Epoch: 12 December)

Event Time Altitude Azimuth Distance (km) Brightness Sun altitude
Rises 17:03:44 0° 278° (W) 2,319 1.0 -6.7°
Reaches altitude 10° 17:07:17 10° 237° (WSW) 1,452 0.8 -7.2°
Maximum altitude 17:08:01 11° 224° (SW) 1,417 0.3 -7.3°
Drops below altitude 10° 17:08:44 10° 211° (SSW) 1,449 0.0 -7.4°
Sets 17:12:16 0° 170° (S) 2,300 0.2 -7.9°
